World > North America > United States > Texas > Uvalde   City of Uvalde, Texas

Uvalde, TX Hourly Weather Updates

Feedback E-mail the Weather

Quick Clicks

Uvalde, TX Weather Maps

°F °C°F °C
Uvalde Weather Map
UTC Time: 5/24/2024, 12:56
Your Time:

Uvalde, TX Regional Weather

Expires:202405241300;;779627
ASUS44 KSJT 241210
RWRSJT
WEST CENTRAL TEXAS REGIONAL WEATHER ROUNDUP
NATIONAL WEATHER SERVICE SAN ANGELO TX
700 AM CDT FRI MAY 24 2024

NOTE: "FAIR" INDICATES FEW OR NO CLOUDS BELOW 12,000 FEET WITH NO
SIGNIFICANT WEATHER AND/OR OBSTRUCTIONS TO VISIBILITY.


TXZ171-183-184-186-188-203-204-241300-
TEXAS HILL COUNTRY AND EDWARDS PLATEAU
  
CITY           SKY/WX    TMP DP  RH WIND       PRES   REMARKS
LLANO            N/A     75  72  88 CALM      29.76S FOG     TC  24   
HORSESHOE BAY  CLOUDY    77  72  83 CALM      29.77S TC  25           
KERRVILLE      CLOUDY    76  72  87 S7        29.80R FOG     TC  24   
FREDERICKSBRG  CLOUDY    76  70  82 S8        29.80R TC  25           
ROCKSPRINGS    CLOUDY    73  72  94 SE15      29.85R FOG     TC  23   
HONDO          CLOUDY    79  74  84 SE7       29.76R TC  26           
UVALDE         CLOUDY    77  77 100 E6        29.77R TC  25           
DEL RIO        CLOUDY    81  73  76 E9        29.71R TC  27           
$$


SKY/WX - Weather  TMP - Temperature  DP - Dew Point  RH - Humidity
WIND - Wind Direction/Speed PRES - Barometric Pressure VSB - Visibility
WCI - Wind Chill Index E13G22 Wind - East Wind 13 mph/Gusts of 22 mph

Trending Headlines

Trending Entertainment Headlines

Uvalde Radar Loop

Use the map search tool if you want to place a location marker on the radar map...

Uvalde Quick Facts

National Two Day Weather Forecast


E-mail the Uvalde Weather Forecast

Voice your opinion or tell us about page issues...